Regional Weather Roundup
Issued by NWS Grand Forks, ND

Home | Current Version | Previous Version | Graphics & Text | Print | Product List | Glossary On
Versions: 1 2 3 4 5 6 7 8 9 10 11 12 13 14 15 16 17 18 19 20 21 22 23 24 25 26 27 28 29 30 31 32 33 34 35 36 37 38 39 40 41 42 43 44 45 46 47 48 49 50
000
ASUS43 KFGF 270410
RWRFGF
PRAIRIE TO PINES  WEATHER ROUNDUP
NATIONAL WEATHER SERVICE EASTERN NORTH DAKOTA/GRAND FORKS ND
1100 PM CDT WED APR 26 2017

 **SATELLITE DATA USED TO AUGMENT SKY COVER AT AUTOMATED STATIONS**
 *****  WEATHER ACROSS EASTERN NORTH DAKOTA  *****

CITY           SKY/WX    TMP DP  RH WIND       PRES   REMARKS
GRAND FORKS    LGT SNOW  31  29  92 N15       29.77F FOG     WCI  20
GRAND FRKS AFB MIX PCPN  30  29  95 N17G25    29.77F FOG     WCI  18
DEVILS LAKE    CLOUDY    34  27  75 NE3       29.79S
FARGO          LGT SNOW  29  28  96 N16       29.73F FOG     WCI  17
WAHPETON ARPT  CLOUDY    30  27  86 N14       29.69F WCI  20
$$

 ***** WEATHER ACROSS CENTRAL AND WESTERN NORTH DAKOTA  *****

CITY           SKY/WX    TMP DP  RH WIND       PRES   REMARKS
BISMARCK       CLOUDY    37  29  72 E7        29.78S
MINOT          FAIR      32  25  75 NE7       29.79R
JAMESTOWN      CLOUDY    31  27  85 NE10      29.75F WCI  22
MINOT AFB      FAIR      35  26  70 NE8       29.79R
GARRISON         N/A     33  28  81 E7        29.77S
WILLISTON      FAIR      39  21  48 E10       29.78S
DICKINSON      FAIR      32  20  61 NE6       29.72S
HETTINGER      FAIR      30  23  75 NE9       29.73S WCI  22
$$

 *****  OTHER AIRPORT OBSERVATIONS IN OUR AREA  *****

CITY           SKY/WX    TMP DP  RH WIND       PRES   REMARKS
WALHALLA       NOT AVBL
GRAFTON AIRPOR MOCLDY    30  30 100 NE9       29.81F WCI  22
VALLEY CITY AR CLOUDY    28  28 100 N9        29.76F WCI  20
CANDO          NOT AVBL
CAVALIER APRT  CLOUDY    36  23  60 NE12G17   29.79F
GWINNER        CLOUDY    28  27  93 MISG      29.72F
SHEYENNE NWR     N/A     28  26  91 N8        29.95S WCI  20
ROLLA          FAIR      30  21  69 NE12      29.80F WCI  21
 ***** THE ABOVE OBSERVATIONS ARE NON NWS ARE NOT QUALITY
       CONTROLLED AND MAY MIS-REPORT RAIN FOR SNOW...
$$

  *****  WEATHER ACROSS NORTHERN MINNESOTA  *****

CITY           SKY/WX    TMP DP  RH WIND       PRES   REMARKS
FLAG ISLAND    FLURRIES  28  21  74 NE21      29.79F WCI  15
WARROAD        LGT SNOW  28  23  80 NE24G35   29.77F WCI  14
ROSEAU         LGT SNOW  28  25  86 NE22      29.77S WCI  15
HALLOCK        LGT SNOW  32  28  86 NE18G25   29.79S WCI  20
THF RVR FALLS  LGT SNOW  26  25  96 NE15      29.74S FOG     WCI  14
BAUDETTE       FLURRIES  26  19  74 NE18      29.74S WCI  13
WASKISH        FLURRIES  25  19  80 NE10      29.71F WCI  15
CROOKSTON      LGT SNOW  28  27  93 NE10G16   29.76F WCI  19
STEPHEN NDAWN    N/A     28  28 100 N12         N/A  WCI  18
GREENBUSH NDAW   N/A     28  28 100 NE13        N/A  WCI  18
$$
  *****  WEATHER ACROSS CENTRAL AND WEST MINNESOTA  *****

CITY           SKY/WX    TMP DP  RH WIND       PRES   REMARKS
FOSSTON        LGT SNOW  25  23  93 N13       29.70S WCI  13
BEMIDJI        FLURRIES  25  22  90 NE12      29.66F WCI  14
PARK RAPIDS    LGT SNOW  27  21  78 N12       29.63F WCI  17
ELBOW LAKE     CLOUDY    30  29  97 NW13      29.65F FOG     WCI  20
WADENA         LGT SNOW  27  27 100 N3        29.62F
DETROIT LAKES  CLOUDY    28  28 100 CALM      29.66F FOG
MOORHEAD       LGT RAIN  28  27  93 N7        29.72F WCI  21
FERGUS FALLS   CLOUDY    28  27  93 N9        29.67F WCI  20
MORRIS MN      CLOUDY    30  28  93 NW15      29.64F WCI  19
STAPLES        CLOUDY    27  27 100 N6        29.62F WCI  20
$$
  *****  WEATHER ELSEWHERE ACROSS MINNESOTA  *****

CITY           SKY/WX    TMP DP  RH WIND       PRES   REMARKS
DULUTH         CLOUDY    26  23  88 N12       29.58F WCI  16
INTRNTL FALLS  CLOUDY    24  16  71 NE14G22   29.71F WCI  12
ELY            CLOUDY    21  18  86 N6        29.62F WCI  14
CLOQUET        CLOUDY    27  23  86 N7        29.59F WCI  19
WHEATON        CLOUDY    30  27  86 NW14G21   29.70F WCI  20
BRAINERD       CLOUDY    29  26  89 N10       29.61F WCI  20
HIBBING        CLOUDY    23  20  88 NE7       29.61F WCI  15
ALEXANDRIA     CLOUDY    30  26  85 N10       29.63F WCI  21
SAINT CLOUD    LGT SNOW  31  30  96 NW7       29.60F FOG     WCI  24
MINNEAPOLIS    CLOUDY    37  31  78 N10       29.58F
$$

  *****  WEATHER ACROSS SOUTH DAKOTA  *****

CITY           SKY/WX    TMP DP  RH WIND       PRES   REMARKS
SIOUX FALLS    CLOUDY    32  27  81 N12       29.69R WCI  23
BROOKINGS      CLOUDY    29  25  85 N16       29.67F WCI  17
WATERTOWN      CLOUDY    27  23  85 N14       29.66F WCI  16
HURON          CLOUDY    32  26  78 N16       29.72S WCI  21
SISSETON         N/A     29  26  89 N22       29.69F WCI  15
ABERDEEN       CLOUDY    29  23  78 N13       29.73F WCI  19
MITCHELL       CLOUDY    33  27  78 N12       29.73S WCI  24
PIERRE         FAIR      29  24  82 E7        29.72S WCI  22
MOBRIDGE       FAIR      30  23  75 NE9       29.72S WCI  22
RAPID CITY     FAIR      30  26  85 W8        29.72F WCI  22
$$

  *****  SOME WEATHER IN NEARBY STATES *****

CITY           SKY/WX    TMP DP  RH WIND       PRES   REMARKS
GLASGOW MT     FAIR      38  24  57 E10       29.70S
GREAT FALLS MT MOCLDY    40  37  89 CALM      29.62R
CHEYENNE WY    MOCLDY    39  32  76 W8        29.71F
SCOTTSBLUFF NE MOCLDY    44  38  79 SE6       29.71R
OMAHA NE       CLOUDY    41  31  67 NW13      29.69S
DES MOINES IA  CLOUDY    42  35  76 NW18G25   29.60F
DAVENPORT IA   CLOUDY    47  42  83 NW14      29.49F
CHICAGO IL     LGT RAIN  61  57  87 CALM      29.44F
EAU CLAIRE WI  CLOUDY    37  34  89 N8        29.52F
LA CROSSE WI   CLOUDY    43  39  86 NW13      29.52F
$$

  *****  SOME NATIONAL WEATHER *****

CITY           SKY/WX    TMP DP  RH WIND       PRES   REMARKS
LA GUARDIA NY  CLOUDY    58  56  93 NE5       29.84S FOG
RALEIGH NC     FAIR      69  62  78 S7        29.83F
ATLANTA GA     FAIR      69  57  65 S10       29.81F
NEW ORLEANS LA CLOUDY    77  72  84 S13       29.69R
OKLAHOMA CITY  FAIR      47  40  76 CALM      29.76R
ALBUQUERQUE NM MOCLDY    60  23  24 E5        29.79R
SALT LAKE CITY FAIR      47  44  90 SE7       29.73F
LOS ANGELES CA FAIR      61  55  81 SW10      29.83R
BOISE ID       CLOUDY    46  43  89 NW9       29.80R
SEATTLE WA     FAIR      48  38  68 SW14      29.94R
$$

*** WEATHER ACROSS MANITOBA...SASKATCHEWAN AND ONTARIO ***
                ***ONTARIO***

CITY           SKY/WX    TMP DP  RH WIND       PRES   REMARKS
GERALDTON      LGTSLEET  16  12  86 NE14G24   29.70F VSB 3/4 WCI   1
THUNDER BAY    FRZ DRZL  23  19  86 N7        29.64F WCI  15
SIOUX LOOKOUT  FLURRIES  19  16  86 VRB7G17   29.81R WCI  10
TORONTO        CLEAR     55  52  88 CALM      29.69F
BIG TROUT LK   MOCLDY    21   9  58 E8        30.11F WCI  12
PICKLE LAKE    NOT AVBL
DRYDEN         FLURRIES  21  18  86 NE18G30   29.77F WCI   6
KENORA         FLURRIES  25  19  80 NE13G22   29.79F WCI  13
$$
                *** MANITOBA***

CITY           SKY/WX    TMP DP  RH WIND       PRES   REMARKS
BRANDON        PTCLDY    28  21  74 NE8       29.85F WCI  20
DAUPHIN        CLEAR     28  19  69 NE3       29.91F
ISLAND LAKE    PTCLDY    27   9  46 E7        30.06S WCI  19
PILOT MOUND      N/A     32  19  59 NE9         N/A  WCI  24
THE PAS        CLEAR     27   9  46 SE2       29.99F
THOMPSON       CLEAR     27   1  33 E3        30.07F
WINNIPEG       CLOUDY    37  12  35 NE15      29.83F
LYNN LAKE      CLEAR     28   5  37 E2        30.01S
CHURCHILL      PTCLDY    16   7  67 S10       30.13F WCI   3
GILLAM         CLEAR     23   1  39 SE5       30.14F WCI  17
$$
                ***SASKATCHEWAN***

CITY           SKY/WX    TMP DP  RH WIND       PRES   REMARKS
ESTEVAN        PTCLDY    34  25  69 E8        29.81R
KINDERSLEY     LGT SNOW  32  32 100 E21       29.71S WCI  20
LLOYDMINSTER   FLURRIES  34  32  93 E8        29.78S
PRINCE ALBERT  PTCLDY    28  18  64 E7        29.88F WCI  21
REGINA         PTCLDY    37  19  48 E16       29.80S
YORKTON        CLEAR     32  21  64 SE7       29.87S
N. BATTLEFORD  CLOUDY    36  23  60 SE10G17   29.82F
LA RONGE       PTCLDY    36  12  38 SE7       29.93S
SASKATOON      CLOUDY    37  19  48 E15       29.84S
SWIFT CURRENT  MOCLDY    39  25  56 SE20G28   29.65F
$$
NOTE: THESE ARE AUTOMATED STATIONS WITH LIMITED QUALITY CONTROL
      "FAIR" INDICATES FEW OR NO CLOUDS BELOW 12,000 FEET WITH NO
      SIGNIFICANT WEATHER AND/OR OBSTRUCTIONS TO VISIBILITY.
      SKY/WX - SKY CONDITION AND SIGNIFICANT WEATHER.
      TMP - AIR TEMPERATURE.    DP   - DEWPOINT TEMPERATURE.
      RH  - RELATIVE HUMIDITY.  PRES - PRESSURE.
      HX  - HEAT INDEX.         WCI  - WIND CHILL INDEX.
$




USA.gov is the U.S. government's official web portal to all federal, state and local government web resources and services.